Location: Ward Pound Ridge Reservation
(41.2500°N, 73.6000°W)
Time: 03:57:31
(UTC-05:00)

Envisat - Pass Details

Date: 09 October 2017
Orbit: 764 x 766 km, 98.2° (Epoch: 17 December)

Event Time Altitude Azimuth Distance (km) Brightness Sun altitude
Exits shadow 21:44:42 24° 281° (W) 1,565 5.0 -37.7°
Drops below altitude 10° 21:48:01 10° 320° (NW) 2,311 6.1 -38.3°
Sets 21:50:45 0° 334° (NNW) 3,242 6.9 -38.7°
